LHA2538 EDDP-LCLK

Flight info

Callsign LHA2538
Flight time 3h 13m
Altitude 33000
Route DRN Z21 OMELO DCT EVIKU DCT ODNEM DCT ERGOM DCT TEGRI DCT TIMUR L606 ADORU UN739 EKI UL854 KULAR UT39 TOMBI M855 DASNI M601 BONEK
Aircraft A319/M-SDE1E2FGIRWYZ/S

Departure

Time 2026-05-05 06:48
Airport Leipzig/Halle Airport (EDDP)

Arrival

Time 2026-05-05 10:02
Airport Larnaca International Airport (LCLK)
Time Latitude Longitude Altitude Speed Heading
2026-05-05 06:35 51.42732 12.23994 468 ft 0 kts 266°
2026-05-05 06:40 51.42733 12.24010 468 ft 3 kts 266°
2026-05-05 06:40 51.42735 12.24052 468 ft 3 kts 266°
2026-05-05 06:40 51.42733 12.24094 468 ft 3 kts 293°
2026-05-05 06:41 51.42715 12.24118 469 ft 3 kts 346°
2026-05-05 06:41 51.42711 12.24119 469 ft 0 kts 353°
2026-05-05 06:41 51.42711 12.24120 468 ft 0 kts 353°
2026-05-05 06:43 51.42711 12.24119 468 ft 0 kts 354°
2026-05-05 06:43 51.42730 12.24116 468 ft 6 kts 354°
2026-05-05 06:43 51.42807 12.24103 468 ft 14 kts 354°
2026-05-05 06:43 51.42908 12.24131 468 ft 15 kts 49°
2026-05-05 06:44 51.42939 12.24294 468 ft 15 kts 85°
2026-05-05 06:44 51.42948 12.24475 468 ft 16 kts 85°
2026-05-05 06:44 51.42957 12.24658 468 ft 16 kts 84°
2026-05-05 06:44 51.42968 12.24846 468 ft 17 kts 85°
2026-05-05 06:45 51.42978 12.25038 468 ft 17 kts 84°
2026-05-05 06:45 51.42986 12.25233 468 ft 17 kts 86°
2026-05-05 06:45 51.42993 12.25432 468 ft 18 kts 85°
2026-05-05 06:45 51.43004 12.25657 468 ft 21 kts 85°
2026-05-05 06:46 51.43015 12.25913 468 ft 24 kts 85°
2026-05-05 06:46 51.43030 12.26191 468 ft 25 kts 84°
2026-05-05 06:46 51.43045 12.26468 468 ft 24 kts 85°
2026-05-05 06:46 51.43057 12.26700 468 ft 16 kts 74°
2026-05-05 06:47 51.43154 12.26751 468 ft 16 kts 352°
2026-05-05 06:47 51.43266 12.26727 468 ft 16 kts 350°
2026-05-05 06:47 51.43362 12.26648 468 ft 16 kts 283°
2026-05-05 06:47 51.43353 12.26464 468 ft 16 kts 265°
2026-05-05 06:48 51.43332 12.25972 469 ft 83 kts 267°
2026-05-05 06:48 51.43271 12.24651 472 ft 151 kts 266°
2026-05-05 06:48 51.43227 12.22935 1109 ft 156 kts 269°
2026-05-05 06:48 51.43155 12.21256 1865 ft 153 kts 266°
2026-05-05 06:49 51.43056 12.19538 2488 ft 162 kts 265°
2026-05-05 06:49 51.42956 12.17741 3005 ft 180 kts 265°
2026-05-05 06:49 51.42911 12.16913 3243 ft 187 kts 265°
2026-05-05 06:49 51.42798 12.14757 3837 ft 205 kts 265°
2026-05-05 06:50 51.42679 12.12405 4440 ft 223 kts 265°
2026-05-05 06:50 51.42548 12.09808 5050 ft 242 kts 265°
2026-05-05 06:50 51.42408 12.07043 5726 ft 257 kts 265°
2026-05-05 06:50 51.42267 12.04219 6652 ft 260 kts 264°
2026-05-05 06:51 51.42125 12.01361 7610 ft 262 kts 264°
2026-05-05 06:51 51.41970 11.98431 8533 ft 265 kts 260°
2026-05-05 06:51 51.41410 11.95680 9386 ft 266 kts 237°
2026-05-05 06:51 51.40168 11.93535 10251 ft 268 kts 214°
2026-05-05 06:52 51.38578 11.91977 10895 ft 279 kts 210°
2026-05-05 06:52 51.36842 11.90386 11320 ft 298 kts 210°
2026-05-05 06:52 51.34982 11.88688 11705 ft 316 kts 209°
2026-05-05 06:52 51.33051 11.86915 12244 ft 327 kts 209°
2026-05-05 06:53 51.31083 11.85104 13058 ft 330 kts 210°
2026-05-05 06:53 51.29032 11.83554 13873 ft 331 kts 198°
2026-05-05 06:53 51.26738 11.83111 14651 ft 337 kts 180°
2026-05-05 06:53 51.24424 11.83931 15372 ft 349 kts 162°
2026-05-05 06:54 51.22349 11.86021 16028 ft 365 kts 143°
2026-05-05 06:54 51.20648 11.89034 16673 ft 374 kts 136°
2026-05-05 06:54 51.18981 11.92285 17264 ft 380 kts 136°
2026-05-05 06:54 51.17312 11.95567 17820 ft 385 kts 136°
2026-05-05 06:55 51.15619 11.98874 18376 ft 390 kts 136°
2026-05-05 06:55 51.13891 12.02227 18937 ft 394 kts 136°
2026-05-05 06:55 51.12140 12.05604 19456 ft 399 kts 137°
2026-05-05 06:55 51.10364 12.09017 19954 ft 404 kts 137°
2026-05-05 06:56 51.08586 12.12425 20437 ft 409 kts 137°
2026-05-05 06:56 51.06753 12.15933 20916 ft 414 kts 137°
2026-05-05 06:56 51.04897 12.19481 21380 ft 419 kts 137°
2026-05-05 06:56 51.03099 12.23115 21806 ft 431 kts 130°
2026-05-05 06:57 51.01762 12.27539 22178 ft 451 kts 112°
2026-05-05 06:57 51.01230 12.32491 22563 ft 465 kts 95°
2026-05-05 06:57 51.01215 12.37622 23010 ft 471 kts 91°
2026-05-05 06:57 51.01307 12.42856 23420 ft 476 kts 90°
2026-05-05 06:58 51.01404 12.48106 23978 ft 476 kts 90°
2026-05-05 06:58 51.01478 12.53330 24496 ft 478 kts 90°
2026-05-05 06:58 51.01529 12.58631 24901 ft 482 kts 90°
2026-05-05 06:58 51.01564 12.63968 25287 ft 487 kts 90°
2026-05-05 06:59 51.01590 12.69410 25669 ft 491 kts 91°
2026-05-05 06:59 51.01607 12.74830 26042 ft 495 kts 91°
2026-05-05 06:59 51.01620 12.80258 26404 ft 499 kts 91°
2026-05-05 06:59 51.01632 12.85802 26764 ft 503 kts 90°
2026-05-05 07:00 51.01642 12.91319 27114 ft 506 kts 90°
2026-05-05 07:00 51.01650 12.96931 27460 ft 510 kts 90°
2026-05-05 07:00 51.01652 13.02623 27817 ft 513 kts 89°
2026-05-05 07:00 51.01649 13.08242 28184 ft 516 kts 88°
2026-05-05 07:01 51.01645 13.13945 28654 ft 515 kts 87°
2026-05-05 07:01 51.01640 13.19577 29239 ft 512 kts 86°
2026-05-05 07:01 51.01635 13.25225 29827 ft 509 kts 85°
2026-05-05 07:01 51.01631 13.30837 30333 ft 507 kts 85°
2026-05-05 07:02 51.01626 13.36395 30782 ft 507 kts 84°
2026-05-05 07:02 51.01614 13.42006 31226 ft 507 kts 84°
2026-05-05 07:02 51.01566 13.47553 31639 ft 509 kts 87°
2026-05-05 07:02 51.01231 13.53142 31997 ft 515 kts 94°
2026-05-05 07:03 51.00503 13.58729 32333 ft 521 kts 101°
2026-05-05 07:03 50.99365 13.64210 32668 ft 526 kts 109°
2026-05-05 07:03 50.97815 13.69520 32974 ft 530 kts 117°
2026-05-05 07:03 50.95944 13.74506 33084 ft 532 kts 122°
2026-05-05 07:04 50.93910 13.79408 33086 ft 532 kts 124°
2026-05-05 07:04 50.89444 13.88753 33085 ft 531 kts 128°
2026-05-05 07:05 50.84822 13.97822 33086 ft 531 kts 130°
2026-05-05 07:05 50.79692 14.06165 33087 ft 530 kts 138°
2026-05-05 07:06 50.74240 14.13969 33087 ft 530 kts 139°
2026-05-05 07:06 50.68796 14.21729 33084 ft 530 kts 139°
2026-05-05 07:07 50.63368 14.29503 33060 ft 530 kts 139°
2026-05-05 07:07 50.58078 14.37072 33025 ft 530 kts 139°
2026-05-05 07:08 50.52632 14.44838 32997 ft 531 kts 139°
2026-05-05 07:08 50.47220 14.52551 32982 ft 531 kts 137°
2026-05-05 07:09 50.42076 14.60908 32976 ft 531 kts 132°
2026-05-05 07:09 50.37127 14.69455 32972 ft 538 kts 133°
2026-05-05 07:10 50.32015 14.78235 32971 ft 552 kts 133°
2026-05-05 07:10 50.26834 14.87067 32971 ft 554 kts 133°
2026-05-05 07:11 50.21631 14.95886 32970 ft 555 kts 133°
2026-05-05 07:11 50.16369 15.04771 32970 ft 557 kts 132°
2026-05-05 07:12 50.11118 15.13612 32970 ft 558 kts 131°
2026-05-05 07:12 50.05879 15.22411 32969 ft 559 kts 131°
2026-05-05 07:13 50.00600 15.31248 32963 ft 559 kts 131°
2026-05-05 07:13 49.95319 15.40049 32955 ft 559 kts 131°
2026-05-05 07:14 49.90033 15.48830 32949 ft 559 kts 131°
2026-05-05 07:14 49.84713 15.57637 32943 ft 559 kts 131°
2026-05-05 07:15 49.79399 15.66403 32940 ft 559 kts 133°
2026-05-05 07:15 49.74095 15.75124 32942 ft 559 kts 133°
2026-05-05 07:16 49.68791 15.83807 32942 ft 559 kts 133°
2026-05-05 07:16 49.63454 15.92518 32944 ft 559 kts 133°
2026-05-05 07:17 49.58146 16.01154 32953 ft 559 kts 133°
2026-05-05 07:17 49.52788 16.09845 32970 ft 559 kts 133°
2026-05-05 07:18 49.47457 16.18460 32985 ft 559 kts 133°
2026-05-05 07:18 49.42107 16.27076 32992 ft 559 kts 133°
2026-05-05 07:19 49.36746 16.35685 32995 ft 559 kts 133°
2026-05-05 07:19 49.31387 16.44256 32996 ft 559 kts 132°
2026-05-05 07:20 49.26009 16.52835 32996 ft 559 kts 133°
2026-05-05 07:20 49.20662 16.61330 32996 ft 559 kts 133°
2026-05-05 07:21 49.15238 16.69925 32994 ft 559 kts 133°
2026-05-05 07:21 49.09861 16.78405 32995 ft 559 kts 133°
2026-05-05 07:22 49.04464 16.86880 33000 ft 554 kts 132°
2026-05-05 07:22 48.99165 16.95186 33000 ft 543 kts 131°
2026-05-05 07:23 48.93944 17.03354 32999 ft 535 kts 131°
2026-05-05 07:23 48.88780 17.11409 32992 ft 531 kts 132°
2026-05-05 07:24 48.83652 17.19367 32995 ft 531 kts 132°
2026-05-05 07:24 48.78479 17.27340 32995 ft 531 kts 132°
2026-05-05 07:25 48.73312 17.35273 32996 ft 531 kts 132°
2026-05-05 07:25 48.68185 17.43122 32998 ft 531 kts 132°
2026-05-05 07:26 48.63267 17.50632 33006 ft 531 kts 132°
2026-05-05 07:26 48.58097 17.58501 33015 ft 531 kts 132°
2026-05-05 07:27 48.52894 17.66397 33018 ft 531 kts 133°
2026-05-05 07:27 48.47691 17.74270 33022 ft 531 kts 133°
2026-05-05 07:28 48.42503 17.82092 33023 ft 531 kts 133°
2026-05-05 07:28 48.37285 17.89939 33024 ft 531 kts 133°
2026-05-05 07:29 48.32082 17.97735 33024 ft 531 kts 133°
2026-05-05 07:29 48.26854 18.05550 33024 ft 531 kts 133°
2026-05-05 07:30 48.21632 18.13327 33024 ft 531 kts 133°
2026-05-05 07:30 48.13784 18.24973 33024 ft 531 kts 133°
2026-05-05 07:31 48.08571 18.32685 33023 ft 531 kts 133°
2026-05-05 07:31 48.03302 18.40454 33025 ft 531 kts 133°
2026-05-05 07:32 47.98065 18.48146 33024 ft 531 kts 133°
2026-05-05 07:32 47.92803 18.55858 33028 ft 531 kts 133°
2026-05-05 07:33 47.87549 18.63530 33039 ft 531 kts 133°
2026-05-05 07:33 47.82264 18.71227 33060 ft 531 kts 134°
2026-05-05 07:34 47.77182 18.79116 33083 ft 530 kts 130°
2026-05-05 07:34 47.72197 18.87115 33097 ft 530 kts 130°
2026-05-05 07:35 47.67183 18.95136 33102 ft 530 kts 130°
2026-05-05 07:35 47.62197 19.03072 33107 ft 525 kts 130°
2026-05-05 07:36 47.57289 19.10858 33109 ft 516 kts 131°
2026-05-05 07:36 47.52440 19.18521 33109 ft 507 kts 131°
2026-05-05 07:37 47.47581 19.26174 33107 ft 501 kts 131°
2026-05-05 07:37 47.42829 19.33639 33104 ft 501 kts 131°
2026-05-05 07:38 47.38067 19.41096 33105 ft 501 kts 131°
2026-05-05 07:38 47.33301 19.48546 33106 ft 501 kts 131°
2026-05-05 07:39 47.28527 19.55981 33109 ft 501 kts 131°
2026-05-05 07:39 47.23752 19.63401 33115 ft 501 kts 131°
2026-05-05 07:40 47.18973 19.70806 33123 ft 501 kts 132°
2026-05-05 07:40 47.14187 19.78199 33129 ft 501 kts 132°
2026-05-05 07:41 47.09386 19.85593 33132 ft 501 kts 132°
2026-05-05 07:41 47.04608 19.92935 33133 ft 501 kts 132°
2026-05-05 07:42 46.99807 20.00289 33133 ft 501 kts 132°
2026-05-05 07:42 46.94982 20.07656 33133 ft 500 kts 131°
2026-05-05 07:43 46.90184 20.14966 33133 ft 500 kts 131°
2026-05-05 07:43 46.85390 20.22252 33132 ft 499 kts 131°
2026-05-05 07:44 46.80576 20.29551 33133 ft 499 kts 131°
2026-05-05 07:44 46.75768 20.36818 33133 ft 499 kts 131°
2026-05-05 07:45 46.70976 20.44040 33133 ft 499 kts 131°
2026-05-05 07:45 46.66144 20.51301 33133 ft 499 kts 131°
2026-05-05 07:46 46.61333 20.58512 33133 ft 499 kts 131°
2026-05-05 07:46 46.56488 20.65753 33132 ft 499 kts 132°
2026-05-05 07:47 46.51675 20.72928 33135 ft 499 kts 132°
2026-05-05 07:47 46.46839 20.80117 33143 ft 499 kts 132°
2026-05-05 07:48 46.42002 20.87288 33152 ft 499 kts 132°
2026-05-05 07:48 46.37159 20.94455 33157 ft 498 kts 133°
2026-05-05 07:49 46.32315 21.01603 33160 ft 495 kts 134°
2026-05-05 07:49 46.27529 21.08633 33162 ft 490 kts 134°
2026-05-05 07:50 46.22602 21.15253 33161 ft 486 kts 138°
2026-05-05 07:50 46.17659 21.21629 33159 ft 486 kts 138°
2026-05-05 07:51 46.12620 21.28114 33159 ft 486 kts 138°
2026-05-05 07:51 46.07580 21.34590 33159 ft 486 kts 138°
2026-05-05 07:52 46.02570 21.41012 33160 ft 486 kts 138°
2026-05-05 07:52 45.97515 21.47476 33159 ft 486 kts 138°
2026-05-05 07:53 45.92485 21.53894 33159 ft 485 kts 138°
2026-05-05 07:53 45.87432 21.60325 33159 ft 486 kts 138°
2026-05-05 07:54 45.82376 21.66742 33158 ft 485 kts 139°
2026-05-05 07:54 45.77341 21.73118 33159 ft 486 kts 139°
2026-05-05 07:55 45.72308 21.79472 33160 ft 486 kts 139°
2026-05-05 07:55 45.67252 21.85844 33160 ft 486 kts 139°
2026-05-05 07:56 45.62174 21.92223 33159 ft 486 kts 139°
2026-05-05 07:56 45.57124 21.98554 33158 ft 486 kts 139°
2026-05-05 07:57 45.52042 22.04907 33158 ft 486 kts 139°
2026-05-05 07:57 45.46961 22.11245 33158 ft 486 kts 139°
2026-05-05 07:58 45.41886 22.17559 33158 ft 486 kts 139°
2026-05-05 07:58 45.36818 22.23850 33159 ft 486 kts 139°
2026-05-05 07:59 45.31733 22.30142 33159 ft 486 kts 139°
2026-05-05 07:59 45.26664 22.36403 33158 ft 486 kts 139°
2026-05-05 08:00 45.21564 22.42687 33159 ft 486 kts 139°
2026-05-05 08:00 45.16474 22.48941 33159 ft 486 kts 139°
2026-05-05 08:01 45.11379 22.55187 33159 ft 486 kts 139°
2026-05-05 08:01 45.06296 22.61404 33160 ft 485 kts 139°
2026-05-05 08:02 45.01190 22.67636 33159 ft 483 kts 140°
2026-05-05 08:02 44.96479 22.73370 33160 ft 481 kts 140°
2026-05-05 08:03 44.91433 22.79493 33158 ft 480 kts 140°
2026-05-05 08:03 44.86372 22.85626 33160 ft 480 kts 141°
2026-05-05 08:04 44.81313 22.91746 33160 ft 478 kts 141°
2026-05-05 08:04 44.76315 22.97774 33160 ft 474 kts 141°
2026-05-05 08:05 44.71339 23.03762 33161 ft 466 kts 142°
2026-05-05 08:05 44.66449 23.09623 33161 ft 464 kts 142°
2026-05-05 08:06 44.61542 23.15488 33160 ft 463 kts 142°
2026-05-05 08:06 44.56659 23.21317 33157 ft 463 kts 142°
2026-05-05 08:07 44.51784 23.27126 33157 ft 463 kts 142°
2026-05-05 08:07 44.46881 23.32956 33158 ft 463 kts 142°
2026-05-05 08:08 44.42004 23.38740 33158 ft 463 kts 142°
2026-05-05 08:08 44.37093 23.44553 33159 ft 463 kts 142°
2026-05-05 08:09 44.32184 23.50348 33158 ft 463 kts 142°
2026-05-05 08:09 44.27276 23.56133 33160 ft 463 kts 142°
2026-05-05 08:10 44.22355 23.61922 33158 ft 463 kts 142°
2026-05-05 08:10 44.17454 23.67669 33158 ft 463 kts 143°
2026-05-05 08:11 44.12547 23.73407 33157 ft 463 kts 143°
2026-05-05 08:11 44.07696 23.79067 33157 ft 463 kts 143°
2026-05-05 08:12 44.02788 23.84783 33159 ft 463 kts 143°
2026-05-05 08:12 43.97861 23.90514 33158 ft 463 kts 143°
2026-05-05 08:13 43.92930 23.96233 33157 ft 463 kts 143°
2026-05-05 08:13 43.87983 24.01957 33159 ft 463 kts 143°
2026-05-05 08:14 43.83035 24.07664 33158 ft 463 kts 143°
2026-05-05 08:14 43.78130 24.13313 33158 ft 463 kts 143°
2026-05-05 08:15 43.73161 24.19022 33159 ft 463 kts 142°
2026-05-05 08:15 43.68292 24.24760 33158 ft 464 kts 140°
2026-05-05 08:16 43.63640 24.30937 33160 ft 464 kts 138°
2026-05-05 08:16 43.59008 24.37115 33160 ft 465 kts 138°
2026-05-05 08:17 43.54379 24.43273 33159 ft 464 kts 138°
2026-05-05 08:17 43.49735 24.49432 33159 ft 465 kts 138°
2026-05-05 08:18 43.45095 24.55573 33158 ft 465 kts 138°
2026-05-05 08:18 43.40465 24.61684 33159 ft 464 kts 139°
2026-05-05 08:19 43.35794 24.67841 33159 ft 464 kts 139°
2026-05-05 08:19 43.31159 24.73932 33158 ft 464 kts 139°
2026-05-05 08:20 43.26493 24.80048 33158 ft 464 kts 139°
2026-05-05 08:20 43.21852 24.86124 33159 ft 464 kts 139°
2026-05-05 08:21 43.17180 24.92222 33158 ft 463 kts 139°
2026-05-05 08:21 43.12520 24.98289 33159 ft 463 kts 139°
2026-05-05 08:22 43.07864 25.04355 33159 ft 463 kts 139°
2026-05-05 08:22 43.03221 25.10389 33157 ft 464 kts 139°
2026-05-05 08:23 42.98519 25.16494 33158 ft 467 kts 139°
2026-05-05 08:23 42.93819 25.22576 33156 ft 469 kts 139°
2026-05-05 08:24 42.89054 25.28722 33157 ft 477 kts 138°
2026-05-05 08:24 42.84220 25.34950 33159 ft 479 kts 138°
2026-05-05 08:25 42.79407 25.41137 33160 ft 479 kts 138°
2026-05-05 08:25 42.74556 25.47359 33160 ft 479 kts 138°
2026-05-05 08:26 42.69723 25.53540 33160 ft 479 kts 138°
2026-05-05 08:26 42.64858 25.59749 33160 ft 479 kts 138°
2026-05-05 08:27 42.60033 25.65893 33159 ft 479 kts 139°
2026-05-05 08:27 42.55180 25.72059 33159 ft 479 kts 139°
2026-05-05 08:28 42.50325 25.78215 33160 ft 479 kts 139°
2026-05-05 08:28 42.45458 25.84370 33160 ft 479 kts 139°
2026-05-05 08:29 42.40594 25.90508 33160 ft 479 kts 139°
2026-05-05 08:30 42.33315 25.99667 33160 ft 479 kts 139°
2026-05-05 08:30 42.28452 26.05767 33160 ft 479 kts 139°
2026-05-05 08:31 42.23559 26.11891 33160 ft 479 kts 139°
2026-05-05 08:31 42.18693 26.17948 33160 ft 479 kts 139°
2026-05-05 08:32 42.13803 26.24016 33160 ft 479 kts 139°
2026-05-05 08:32 42.08935 26.30045 33160 ft 479 kts 139°
2026-05-05 08:33 42.04014 26.36126 33160 ft 479 kts 139°
2026-05-05 08:33 41.99137 26.42139 33160 ft 479 kts 139°
2026-05-05 08:34 41.94218 26.48190 33160 ft 479 kts 139°
2026-05-05 08:34 41.89314 26.54198 33160 ft 479 kts 140°
2026-05-05 08:35 41.84132 26.59741 33159 ft 477 kts 146°
2026-05-05 08:35 41.78733 26.64845 33160 ft 476 kts 147°
2026-05-05 08:36 41.73315 26.69947 33160 ft 476 kts 147°
2026-05-05 08:36 41.67897 26.75048 33160 ft 476 kts 147°
2026-05-05 08:37 41.62490 26.80131 33160 ft 476 kts 147°
2026-05-05 08:37 41.57109 26.85181 33160 ft 476 kts 147°
2026-05-05 08:38 41.51683 26.90263 33161 ft 476 kts 147°
2026-05-05 08:38 41.46310 26.95288 33161 ft 473 kts 148°
2026-05-05 08:39 41.40986 27.00262 33163 ft 465 kts 148°
2026-05-05 08:39 41.35724 27.05157 33162 ft 460 kts 148°
2026-05-05 08:40 41.30529 27.09978 33162 ft 455 kts 148°
2026-05-05 08:40 41.25371 27.14757 33161 ft 452 kts 148°
2026-05-05 08:41 41.20221 27.19521 33160 ft 452 kts 148°
2026-05-05 08:41 41.15176 27.24180 33160 ft 452 kts 148°
2026-05-05 08:42 41.10262 27.28709 33160 ft 452 kts 148°
2026-05-05 08:42 41.05099 27.33456 33159 ft 454 kts 148°
2026-05-05 08:43 40.99926 27.38195 33159 ft 455 kts 149°
2026-05-05 08:43 40.94523 27.42488 33159 ft 454 kts 155°
2026-05-05 08:44 40.88817 27.45953 33160 ft 452 kts 161°
2026-05-05 08:44 40.82975 27.49028 33160 ft 452 kts 161°
2026-05-05 08:45 40.77166 27.52084 33160 ft 452 kts 161°
2026-05-05 08:45 40.71323 27.55155 33160 ft 452 kts 161°
2026-05-05 08:46 40.65519 27.58200 33160 ft 452 kts 161°
2026-05-05 08:46 40.59672 27.61262 33160 ft 452 kts 161°
2026-05-05 08:47 40.53873 27.64293 33160 ft 452 kts 161°
2026-05-05 08:47 40.48035 27.67366 33160 ft 452 kts 161°
2026-05-05 08:48 40.42211 27.70445 33161 ft 452 kts 161°
2026-05-05 08:48 40.36392 27.73514 33167 ft 452 kts 161°
2026-05-05 08:49 40.30569 27.76577 33174 ft 452 kts 161°
2026-05-05 08:49 40.24780 27.79615 33182 ft 452 kts 161°
2026-05-05 08:50 40.18955 27.82666 33185 ft 452 kts 161°
2026-05-05 08:50 40.13149 27.85702 33187 ft 452 kts 161°
2026-05-05 08:51 40.07319 27.88744 33187 ft 452 kts 161°
2026-05-05 08:51 40.01486 27.91783 33187 ft 452 kts 161°
2026-05-05 08:52 39.95676 27.94803 33187 ft 452 kts 161°
2026-05-05 08:52 39.89848 27.97827 33187 ft 452 kts 161°
2026-05-05 08:53 39.84033 28.00816 33188 ft 452 kts 162°
2026-05-05 08:53 39.78170 28.03744 33187 ft 451 kts 162°
2026-05-05 08:54 39.72344 28.06644 33187 ft 451 kts 162°
2026-05-05 08:54 39.66505 28.09550 33187 ft 451 kts 162°
2026-05-05 08:55 39.60640 28.12467 33187 ft 452 kts 162°
2026-05-05 08:55 39.54779 28.15376 33187 ft 452 kts 162°
2026-05-05 08:56 39.48934 28.18273 33187 ft 451 kts 162°
2026-05-05 08:56 39.43114 28.21151 33187 ft 451 kts 162°
2026-05-05 08:57 39.37263 28.24040 33187 ft 452 kts 162°
2026-05-05 08:57 39.31393 28.26932 33187 ft 451 kts 162°
2026-05-05 08:58 39.25564 28.29793 33187 ft 451 kts 162°
2026-05-05 08:58 39.19683 28.32665 33187 ft 451 kts 162°
2026-05-05 08:59 39.13863 28.35501 33187 ft 451 kts 162°
2026-05-05 08:59 39.08014 28.38347 33187 ft 451 kts 162°
2026-05-05 09:00 39.02147 28.41231 33187 ft 452 kts 161°
2026-05-05 09:00 38.96312 28.44187 33186 ft 455 kts 161°
2026-05-05 09:01 38.90418 28.47166 33182 ft 458 kts 162°
2026-05-05 09:01 38.84448 28.50168 33177 ft 461 kts 162°
2026-05-05 09:02 38.78524 28.53139 33172 ft 461 kts 162°
2026-05-05 09:02 38.72523 28.56144 33167 ft 461 kts 162°
2026-05-05 09:03 38.66586 28.59112 33164 ft 461 kts 162°
2026-05-05 09:03 38.60690 28.62278 33162 ft 463 kts 157°
2026-05-05 09:04 38.55028 28.66247 33160 ft 466 kts 152°
2026-05-05 09:04 38.49652 28.70939 33160 ft 468 kts 148°
2026-05-05 09:05 38.44358 28.75697 33159 ft 468 kts 148°
2026-05-05 09:05 38.39037 28.80459 33158 ft 468 kts 148°
2026-05-05 09:06 38.33727 28.85200 33159 ft 466 kts 148°
2026-05-05 09:06 38.28460 28.89890 33160 ft 464 kts 149°
2026-05-05 09:07 38.23206 28.94559 33160 ft 461 kts 149°
2026-05-05 09:07 38.17948 28.99220 33160 ft 458 kts 149°
2026-05-05 09:08 38.12746 29.03825 33160 ft 456 kts 149°
2026-05-05 09:08 38.07583 29.08385 33160 ft 454 kts 149°
2026-05-05 09:09 38.02438 29.12922 33159 ft 454 kts 149°
2026-05-05 09:09 37.97258 29.17482 33159 ft 454 kts 149°
2026-05-05 09:10 37.92081 29.22031 33159 ft 454 kts 149°
2026-05-05 09:10 37.86917 29.26561 33160 ft 454 kts 149°
2026-05-05 09:11 37.81726 29.31110 33159 ft 454 kts 149°
2026-05-05 09:11 37.76569 29.35626 33159 ft 454 kts 149°
2026-05-05 09:12 37.71396 29.40146 33159 ft 454 kts 149°
2026-05-05 09:12 37.66208 29.44671 33159 ft 454 kts 149°
2026-05-05 09:13 37.61018 29.49189 33159 ft 454 kts 149°
2026-05-05 09:13 37.55849 29.53680 33159 ft 454 kts 149°
2026-05-05 09:14 37.50661 29.58180 33159 ft 454 kts 149°
2026-05-05 09:14 37.45491 29.62657 33159 ft 454 kts 149°
2026-05-05 09:15 37.40280 29.67160 33159 ft 453 kts 150°
2026-05-05 09:15 37.35099 29.71631 33159 ft 454 kts 150°
2026-05-05 09:16 37.29929 29.76091 33159 ft 453 kts 150°
2026-05-05 09:16 37.24742 29.80561 33159 ft 453 kts 150°
2026-05-05 09:17 37.19560 29.85017 33159 ft 453 kts 150°
2026-05-05 09:17 37.14361 29.89478 33159 ft 454 kts 150°
2026-05-05 09:18 37.09174 29.93924 33159 ft 454 kts 149°
2026-05-05 09:18 37.03995 29.98360 33149 ft 454 kts 149°
2026-05-05 09:19 36.98797 30.02807 33124 ft 454 kts 149°
2026-05-05 09:19 36.93571 30.07271 33092 ft 455 kts 148°
2026-05-05 09:20 36.88373 30.11706 33069 ft 455 kts 148°
2026-05-05 09:20 36.83147 30.16154 33058 ft 455 kts 148°
2026-05-05 09:21 36.77943 30.20571 33053 ft 455 kts 148°
2026-05-05 09:21 36.72693 30.25018 33052 ft 455 kts 148°
2026-05-05 09:22 36.67490 30.29416 33052 ft 455 kts 148°
2026-05-05 09:22 36.62262 30.33828 33052 ft 456 kts 148°
2026-05-05 09:23 36.57014 30.38249 33052 ft 455 kts 148°
2026-05-05 09:23 36.51787 30.42646 33052 ft 455 kts 148°
2026-05-05 09:24 36.46551 30.47043 33052 ft 456 kts 148°
2026-05-05 09:24 36.41309 30.51438 33052 ft 455 kts 148°
2026-05-05 09:25 36.36105 30.55792 33052 ft 456 kts 148°
2026-05-05 09:25 36.30862 30.60172 33052 ft 455 kts 148°
2026-05-05 09:26 36.25620 30.64545 33052 ft 455 kts 148°
2026-05-05 09:26 36.20376 30.68910 33051 ft 455 kts 149°
2026-05-05 09:27 36.15144 30.73259 33052 ft 455 kts 149°
2026-05-05 09:27 36.09832 30.77460 33051 ft 453 kts 154°
2026-05-05 09:28 36.04122 30.80617 33051 ft 450 kts 163°
2026-05-05 09:28 35.98102 30.82513 33051 ft 446 kts 173°
2026-05-05 09:29 35.91988 30.83202 33052 ft 444 kts 179°
2026-05-05 09:29 35.85826 30.83558 33052 ft 444 kts 180°
2026-05-05 09:30 35.79664 30.83920 33052 ft 444 kts 179°
2026-05-05 09:30 35.73517 30.84303 33051 ft 445 kts 178°
2026-05-05 09:31 35.67566 30.86162 33050 ft 452 kts 158°
2026-05-05 09:31 35.62375 30.90558 33051 ft 460 kts 138°
2026-05-05 09:31 35.60318 30.93571 33051 ft 464 kts 127°
2026-05-05 09:32 35.58718 30.97031 33051 ft 469 kts 117°
2026-05-05 09:32 35.56620 31.04622 33053 ft 472 kts 109°
2026-05-05 09:33 35.54722 31.12319 33052 ft 472 kts 109°
2026-05-05 09:33 35.52783 31.20052 33052 ft 473 kts 110°
2026-05-05 09:34 35.50838 31.27696 33051 ft 473 kts 110°
2026-05-05 09:34 35.48873 31.35371 33051 ft 473 kts 110°
2026-05-05 09:35 35.46893 31.43072 33051 ft 473 kts 110°
2026-05-05 09:35 35.43922 31.54583 33051 ft 473 kts 110°
2026-05-05 09:36 35.41964 31.62147 32713 ft 459 kts 110°
2026-05-05 09:36 35.40999 31.65866 32460 ft 451 kts 110°
2026-05-05 09:36 35.40056 31.69494 32211 ft 448 kts 110°
2026-05-05 09:37 35.39118 31.73089 31963 ft 446 kts 110°
2026-05-05 09:37 35.38177 31.76694 31713 ft 444 kts 110°
2026-05-05 09:37 35.37236 31.80292 31463 ft 444 kts 110°
2026-05-05 09:37 35.36287 31.83919 31211 ft 445 kts 110°
2026-05-05 09:38 35.35346 31.87513 30962 ft 445 kts 110°
2026-05-05 09:38 35.34407 31.91091 30714 ft 446 kts 110°
2026-05-05 09:38 35.33450 31.94735 30461 ft 446 kts 110°
2026-05-05 09:38 35.32511 31.98304 30214 ft 447 kts 110°
2026-05-05 09:39 35.31550 32.01952 29962 ft 448 kts 110°
2026-05-05 09:39 35.30600 32.05554 29713 ft 448 kts 110°
2026-05-05 09:39 35.29656 32.09164 29465 ft 449 kts 110°
2026-05-05 09:39 35.28702 32.12828 29212 ft 449 kts 110°
2026-05-05 09:40 35.27764 32.16429 28965 ft 450 kts 110°
2026-05-05 09:40 35.26808 32.20089 28713 ft 450 kts 110°
2026-05-05 09:40 35.25863 32.23700 28465 ft 450 kts 110°
2026-05-05 09:40 35.24897 32.27384 28213 ft 451 kts 110°
2026-05-05 09:41 35.23950 32.30990 27965 ft 450 kts 110°
2026-05-05 09:41 35.22982 32.34667 27712 ft 448 kts 110°
2026-05-05 09:41 35.22044 32.38231 27456 ft 446 kts 110°
2026-05-05 09:41 35.21095 32.41826 27111 ft 444 kts 110°
2026-05-05 09:42 35.20151 32.45396 26745 ft 442 kts 110°
2026-05-05 09:42 35.19213 32.48940 26284 ft 439 kts 109°
2026-05-05 09:42 35.18280 32.52462 25780 ft 435 kts 109°
2026-05-05 09:42 35.17344 32.55987 25250 ft 431 kts 109°
2026-05-05 09:43 35.16432 32.59418 24724 ft 427 kts 109°
2026-05-05 09:43 35.15522 32.62837 24193 ft 423 kts 109°
2026-05-05 09:43 35.14615 32.66240 23656 ft 419 kts 110°
2026-05-05 09:43 35.13720 32.69595 23128 ft 415 kts 110°
2026-05-05 09:44 35.12831 32.72919 22603 ft 411 kts 110°
2026-05-05 09:44 35.11951 32.76206 22082 ft 407 kts 110°
2026-05-05 09:44 35.11075 32.79476 21559 ft 403 kts 110°
2026-05-05 09:44 35.10207 32.82713 21038 ft 400 kts 110°
2026-05-05 09:45 35.09343 32.85926 20521 ft 397 kts 110°
2026-05-05 09:45 35.08493 32.89086 20010 ft 394 kts 110°
2026-05-05 09:45 35.07639 32.92263 19499 ft 391 kts 110°
2026-05-05 09:45 35.06780 32.95396 19001 ft 388 kts 110°
2026-05-05 09:46 35.05897 32.98484 18512 ft 385 kts 111°
2026-05-05 09:46 35.05013 33.01540 18027 ft 381 kts 111°
2026-05-05 09:46 35.04135 33.04573 17544 ft 378 kts 111°
2026-05-05 09:46 35.03276 33.07545 17068 ft 375 kts 111°
2026-05-05 09:47 35.02415 33.10530 16584 ft 372 kts 111°
2026-05-05 09:47 35.01555 33.13512 16093 ft 370 kts 111°
2026-05-05 09:47 35.00711 33.16439 15605 ft 367 kts 111°
2026-05-05 09:47 34.99862 33.19384 15104 ft 366 kts 111°
2026-05-05 09:48 34.99025 33.22283 14604 ft 364 kts 110°
2026-05-05 09:48 34.98181 33.25199 14098 ft 362 kts 110°
2026-05-05 09:48 34.97358 33.28043 13601 ft 360 kts 110°
2026-05-05 09:48 34.96526 33.30911 13098 ft 357 kts 110°
2026-05-05 09:49 34.95700 33.33759 12598 ft 355 kts 110°
2026-05-05 09:49 34.94881 33.36577 12100 ft 352 kts 110°
2026-05-05 09:49 34.94067 33.39370 11603 ft 349 kts 110°
2026-05-05 09:49 34.93259 33.42145 11107 ft 346 kts 110°
2026-05-05 09:50 34.92462 33.44880 10650 ft 342 kts 110°
2026-05-05 09:50 34.91675 33.47581 10404 ft 330 kts 110°
2026-05-05 09:50 34.90929 33.50137 10257 ft 316 kts 110°
2026-05-05 09:50 34.90208 33.52605 10111 ft 304 kts 110°
2026-05-05 09:51 34.89468 33.55109 9948 ft 292 kts 112°
2026-05-05 09:51 34.88380 33.57134 9561 ft 289 kts 140°
2026-05-05 09:51 34.86621 33.58241 9183 ft 284 kts 169°
2026-05-05 09:51 34.84681 33.58196 8946 ft 283 kts 197°
2026-05-05 09:52 34.82979 33.57076 8939 ft 282 kts 223°
2026-05-05 09:52 34.81615 33.55364 8946 ft 282 kts 228°
2026-05-05 09:52 34.80291 33.53582 8943 ft 282 kts 229°
2026-05-05 09:52 34.78973 33.51817 8941 ft 282 kts 228°
2026-05-05 09:53 34.77647 33.50063 8941 ft 282 kts 228°
2026-05-05 09:53 34.76324 33.48332 8942 ft 282 kts 227°
2026-05-05 09:53 34.74984 33.46589 8942 ft 278 kts 226°
2026-05-05 09:53 34.73672 33.44896 8941 ft 278 kts 226°
2026-05-05 09:54 34.72344 33.43182 8941 ft 278 kts 227°
2026-05-05 09:54 34.71014 33.41467 8941 ft 278 kts 226°
2026-05-05 09:54 34.69652 33.39811 8935 ft 278 kts 217°
2026-05-05 09:54 34.67879 33.38940 8929 ft 281 kts 185°
2026-05-05 09:55 34.65973 33.39394 8935 ft 286 kts 153°
2026-05-05 09:55 34.64542 33.41040 8930 ft 288 kts 121°
2026-05-05 09:55 34.64005 33.43312 8572 ft 279 kts 90°
2026-05-05 09:55 34.64484 33.45547 7673 ft 277 kts 56°
2026-05-05 09:56 34.65855 33.47013 6914 ft 263 kts 21°
2026-05-05 09:56 34.67594 33.47232 6204 ft 247 kts 342°
2026-05-05 09:56 34.69000 33.46264 5688 ft 228 kts 317°
2026-05-05 09:56 34.70256 33.45175 5218 ft 218 kts 330°
2026-05-05 09:57 34.71643 33.44522 4549 ft 221 kts 344°
2026-05-05 09:57 34.73162 33.44564 3747 ft 227 kts 23°
2026-05-05 09:57 34.74379 33.45752 2979 ft 228 kts 50°
2026-05-05 09:57 34.75355 33.47234 2353 ft 222 kts 53°
2026-05-05 09:58 34.76291 33.48628 2042 ft 204 kts 51°
2026-05-05 09:58 34.77177 33.49842 1995 ft 180 kts 49°
2026-05-05 09:58 34.78018 33.50938 2007 ft 174 kts 47°
2026-05-05 09:58 34.78805 33.51925 1974 ft 155 kts 46°
2026-05-05 09:59 34.79556 33.52857 1984 ft 153 kts 46°
2026-05-05 09:59 34.80303 33.53769 1991 ft 152 kts 46°
2026-05-05 09:59 34.81056 33.54693 1853 ft 152 kts 46°
2026-05-05 09:59 34.81809 33.55618 1638 ft 152 kts 45°
2026-05-05 10:00 34.82559 33.56533 1410 ft 149 kts 46°
2026-05-05 10:00 34.83274 33.57400 1180 ft 145 kts 47°
2026-05-05 10:00 34.83984 33.58263 954 ft 143 kts 46°
2026-05-05 10:00 34.84690 33.59124 727 ft 144 kts 45°
2026-05-05 10:01 34.85408 33.59960 514 ft 138 kts 47°
2026-05-05 10:01 34.86073 33.60808 210 ft 138 kts 48°
2026-05-05 10:01 34.86726 33.61603 11 ft 126 kts 45°
2026-05-05 10:01 34.87250 33.62259 9 ft 82 kts 46°
2026-05-05 10:02 34.87586 33.62661 11 ft 57 kts 43°
2026-05-05 10:02 34.87742 33.62833 12 ft 19 kts 47°
2026-05-05 10:02 34.87830 33.62924 12 ft 14 kts 355°
2026-05-05 10:02 34.87875 33.62886 13 ft 5 kts 316°
2026-05-05 10:03 34.87903 33.62853 13 ft 5 kts 312°
2026-05-05 10:03 34.87930 33.62812 14 ft 6 kts 302°
2026-05-05 10:03 34.87916 33.62712 13 ft 17 kts 229°
2026-05-05 10:03 34.87812 33.62580 10 ft 25 kts 224°
2026-05-05 10:04 34.87667 33.62407 9 ft 31 kts 225°
2026-05-05 10:04 34.87500 33.62204 9 ft 36 kts 225°
2026-05-05 10:04 34.87318 33.61977 9 ft 37 kts 225°
2026-05-05 10:04 34.87160 33.61784 10 ft 20 kts 225°
2026-05-05 10:05 34.87080 33.61685 11 ft 13 kts 225°
2026-05-05 10:05 34.87017 33.61605 13 ft 13 kts 226°
2026-05-05 10:05 34.86947 33.61517 14 ft 14 kts 224°
2026-05-05 10:05 34.86884 33.61424 17 ft 14 kts 256°
2026-05-05 10:06 34.86919 33.61323 19 ft 13 kts 312°
2026-05-05 10:06 34.86941 33.61293 20 ft 2 kts 309°
2026-05-05 10:06 34.86946 33.61285 21 ft 0 kts 308°
2026-05-05 10:06 34.86961 33.61267 22 ft 5 kts 317°
2026-05-05 10:07 34.86995 33.61229 24 ft 6 kts 318°
2026-05-05 10:07 34.87022 33.61201 26 ft 4 kts 317°
2026-05-05 10:07 34.87033 33.61171 27 ft 3 kts 269°
2026-05-05 10:07 34.87028 33.61151 28 ft 2 kts 238°
2026-05-05 10:08 34.87005 33.61124 29 ft 5 kts 223°
2026-05-05 10:08 34.86993 33.61109 30 ft 0 kts 224°